Regional Weather Roundup
Issued by NWS

Home | Current Version | Previous Version | Text Only | Print | Product List | Glossary On
Versions: 1 2 3 4 5 6 7 8 9 10 11 12 13 14 15 16 17 18 19 20 21 22 23 24 25 26 27 28 29 30 31 32 33 34 35 36 37 38 39 40 41 42 43 44 45 46 47 48 49 50
000
ASHW40 PHFO 220112
RWRHI

WEATHER ROUNDUP FOR HAWAII
NATIONAL WEATHER SERVICE HONOLULU HI
300 PM HST THU SEP 21 2017

THIS IS AN AUTOMATED REPORT THAT HAS NOT BEEN QUALITY CONTROLLED.

NOTE..."FAIR" INDICATES FEW OR NO CLOUDS BELOW 12,000 FEET WITH NO
SIGNIFICANT WEATHER AND/OR OBSTRUCTIONS TO VISIBILITY.

* - THESE SITES REPORT LIMITED FIELDS
# - BUOY DATA PROVIDED BY PACIFIC ISLANDS OCEAN OBSERVING SYSTEM.

HIZ001>004-220200-
KAUAI-NIIHAU-

CITY           SKY/WX    TMP DP  RH WIND       PRES   REMARKS
LIHUE APT      MOSUNNY   87  70  56 NE17      30.04F HX  92
PORT ALLEN*      N/A     88 N/A N/A NE24G35     N/A
POIPU*           N/A     86 N/A N/A NE12G23     N/A
PRINCEVILLE*     N/A     82 N/A N/A E10G18      N/A
KOKOLE POINT*  NOT AVBL
MOLOAA DAIRY*    N/A     88  72  58 NE5G15      N/A  HX  94
WAIMEA HTS*    NOT AVBL
PUU OPAE*      NOT AVBL
PUU LUA*       NOT AVBL
MAKAHA RIDGE*  NOT AVBL
$$

HIZ005>011-220200-
OAHU-

CITY           SKY/WX    TMP DP  RH WIND       PRES   REMARKS
HONOLULU       MOSUNNY   87  63  44 NE16G31   29.99F
KALAELOA       MOSUNNY   88  63  43 E10G21    30.00F
KANEOHE MCB    MOSUNNY   86  67  52 NE13G22   29.99F
WHEELER FIELD  PTSUNNY   81  65  57 CALM      30.01F
BELLOWS*       NOT AVBL
KAHUKU*        NOT AVBL
WHEELER*       NOT AVBL
WAIANAE HARBOR NOT AVBL
DILLINGHAM*      N/A     84  61  45 SW10G21     N/A
KAHUKU TRN*      N/A     81  64  57 W12G26      N/A
KAWAILOA*        N/A     79  64  61 E15G24      N/A
KII*             N/A     82  72  69 E18G28      N/A
MAKUA RANGE*     N/A     88  63  42 W10G23      N/A
OAHU FOREST NW NOT AVBL
SCHOFIELD BRK*   N/A     66  48  52 MISG        N/A
SCHOFIELD S*   NOT AVBL
WAIANAE VLY*   NOT AVBL
KUAOKALA*      NOT AVBL
HONOULIUULI*   NOT AVBL
MOKUOLOE IS*   NOT AVBL
PALEHUA*       NOT AVBL
WAIAWA PHB*    NOT AVBL
$$

HIZ012>013-220200-
MOLOKAI-

CITY           SKY/WX    TMP DP  RH WIND       PRES   REMARKS
MOLOKAI AIRPT  MOSUNNY   85  69  58 NE17G26   30.01F
KALAUPAPA      NOT AVBL
MAKAPULAPAI*   NOT AVBL
MOLOKAI 1*     NOT AVBL
PUU ALII*      NOT AVBL
$$

HIZ016-220200-
KAHOOLAWE-

CITY           SKY/WX    TMP DP  RH WIND       PRES   REMARKS
KAHOOLAWE*     NOT AVBL
HAKIOAWA*      NOT AVBL
HONOKANAIA*      N/A     85  68  56 E18G32    29.92F
KANELOA*         N/A     81  66  61 E21G37    30.05F
KEALIALALO*    NOT AVBL
LUA MAKIKA*    NOT AVBL
$$

HIZ014>015-220200-
LANAI-

CITY           SKY/WX    TMP DP  RH WIND       PRES   REMARKS
LANAI CITY     FAIR      81  66  60 NE23G31   30.02F
LANAI 1*       NOT AVBL
$$

HIZ017>028-220200-
MAUI-

CITY           SKY/WX    TMP DP  RH WIND       PRES   REMARKS
KAHULUI        MOSUNNY   88  65  46 NE22G35   29.98F HX  90
KAPALUA-W MAUI MOSUNNY   84  64  51 NE20G30   30.00F
HANA AIRPORT   NOT AVBL
HANA*          NOT AVBL
HALEAKALA SUMM   N/A     54  28  37 N17         N/A
MAALAEA BAY*   NOT AVBL
HALEAKALA*     NOT AVBL
KAUPO GAP*     NOT AVBL
KULA 1*          N/A     62  58  88 NW5         N/A
$$

HIZ023>026-220200-
BIG ISLAND OF HAWAII COAST AND LOWER SLOPES-

CITY           SKY/WX    TMP DP  RH WIND       PRES   REMARKS
KAILUA KONA    PTSUNNY   86  70  58 SW13      29.92F HX  90
HILO           MOSUNNY   83  69  62 NE9       30.00F
HONOKAA*         N/A     77 N/A N/A VRB1        N/A
KAWAIHAE MWT*    N/A     88 N/A N/A W10         N/A
KAWAIHAE*      NOT AVBL
SOUTH POINT*     N/A     79 N/A N/A N21G29      N/A
UPOLU AIRPORT* NOT AVBL
KAMUELA*       NOT AVBL
HAKALAU*         N/A     60  56  85 E3G10       N/A
KALOKO-HONOKO* NOT AVBL
PALI 2*          N/A     75  61  60 S25G36      N/A
KEALAKOMO*       N/A     88  68  51 N21G30      N/A  HX  91
KAUPULEHU*     NOT AVBL
KAPAPALA*        N/A     81  70  69 SE10G26     N/A
LOWER KAHUKU*  NOT AVBL
PUHE CS*       NOT AVBL
PUHO CS*       NOT AVBL
PTA KEAMUKU*     N/A     75  57  53 NE26G40     N/A
WAIKOLOA*      NOT AVBL
$$

HIZ027>028-220200-
BIG ISLAND OF HAWAII INTERIOR AND SUMMMITS-

CITY           SKY/WX    TMP DP  RH WIND       PRES   REMARKS
BRADSHAW FIELD PTSUNNY   70  57  63 W9        30.30F
MK VISITOR CEN   N/A     55  46  71 S2          N/A
MAUNA KEA*       N/A     45  34  65 SW10G22     N/A
MAUNA LOA*       N/A    N/A N/A N/A MISG        N/A
MAUNA LOA 1*   NOT AVBL
PTA KIPUKA*      N/A     70  59  68 SE8G15      N/A
PTA RANGE 17*    N/A     68  57  68 E9G18       N/A
PTA WEST*        N/A     73  55  53 W13G21      N/A
NENE CABIN*    NOT AVBL
AHUMOA*        NOT AVBL
PTA PORTABLE*  NOT AVBL
PUU MALI*        N/A     63  55  77 NE15G25     N/A
$$

HIC003-220200-
NORTHWEST ISLANDS-

CITY           SKY/WX    TMP DP  RH WIND       PRES   REMARKS
MIDWAY ISLAND  PTSUNNY   82  73  74 NE8       30.14F
MIDWAY NOS*    NOT AVBL
FRENCH FRIGATE NOT AVBL
$$

PHZ110>124-180-220200-
BUOY REPORTS

STATION/POSITION TIME  TEMP    WIND        PRES    WAVE   SWELL
                       AIR SEA DIR/SP/G            HT/PER HT/DIR
                 (UTC) (F)     (DEG/KT/KT) (MB)    (FT/S) (FT/D)
BUOY 51001       0050   81 82   70/ 14/ 17 1018.3F   7/11   5/330
BUOY 51101       0050   81 82   80/ 16/ 17 1018.6F   6/12   5/340
BUOY 51100       NOT AVBL
BUOY 51002       0050   81 81   60/ 17/ 19 1013.1F   7/ 8   3/100
BUOY 51003       0050   81 82   60/ 14/ 16 1014.4F   7/ 7   7/ 90
BUOY 51004       2350      80   50/ 16/ 17 1013.5    7/ 9   5/100
WAIMEA BAY#      0002      80                N/A     5/13   3/310
MOKAPU POINT#    0004      81                N/A     7/ 6   2/ 70
LANAI#           NOT AVBL
BARBERS PT 2#    NOT AVBL
PAUWELA#         0039      80                N/A     6/ 8   2/320
HILO#            0027      81                N/A     6/ 8   2/110
KANEOHE BAY#     NOT AVBL
KANEOHE BAY 2#   NOT AVBL
HANALEI#         0052      81                N/A     5/13   2/320
KAHULUI HARBOR   0048           50/ 12/ 24   N/A
HONOLULU HARBOR  0042   83 81   60/  5/ 12 1016.5F
PEARL HARBOR#    0030      82                N/A     3/ 7   2/160
KILO NALU        NOT AVBL
HILO HARBOR      0042   82 80   40/  9/ 11 1015.6F
MOKUOLOE         0036   81 82   70/ 18/ 20 1016.6F
NAWILIWILI       0042   81 83   50/ 14/ 19 1016.7F
WHOTS BUOY       NOT AVBL
BUOY 51028       NOT AVBL
$$

......................KEY........................................
  SKY/WX - SKY CONDITIONS/PRESENT WEATHER
  TMP    - TEMPERATURE IN FAHRENHEIT
  DWPT   - DEWPOINT IN FAHRENHEIT
  RH     - RELATIVE HUMIDITY IN PERCENT
  WIND   - DIRECTION AND SPEED /MPH FOR ISLANDS...KTS FOR BUOYS/
  PRES   - MEAN SEA LEVEL PRESSURE IN INCHES OF HG
  VSB    - VISIBILITY IN MILES
  HX     - HEAT INDEX
  WCI    - WIND CHILL INDEX
  VRB    - VARIABLE WIND DIRECTION
  N/A    - NOT AVAILABLE




USA.gov is the U.S. government's official web portal to all federal, state and local government web resources and services.